Spokane, WA

11:31 PM PST on December 11, 2017 (GMT -0800)
Spokane International

Weather History for KGEG - August, 2014

Change the Weather History Date:

Wednesday, August 6, 2014

  Actual Average Record
Temperature  
Mean Temperature 75 °F 72 °F  
Max Temperature 89 °F 85 °F 99 °F (1972)
Min Temperature 61 °F 58 °F 43 °F (1969)
Degree Days  
Heating Degree Days 0 1  
Month to date heating degree days 0 1  
Since 1 June heating degree days 113 169  
Since 1 July heating degree days 7 33  
Cooling Degree Days 10 7  
Month to date cooling degree days 88 42  
Year to date cooling degree days 456 285  
Since 1 June cooling degree days 450 271  
Growing Degree Days 25 (Base 50)    
Moisture  
Dew Point 42 °F    
Average Humidity 37    
Maximum Humidity 56    
Minimum Humidity 17    
Precipitation  
Precipitation 0.00 in 0.02 in 0.99 in (2004)
Month to date precipitation 0.00 0.10  
Year to date precipitation 9.42 9.62  
Snow  
Snow 0.00 in 0.00 in 0.00 in (2002)
Month to date snowfall 0.0 0.0  
Since 1 June snowfall 0.0 0.0  
Since 1 July snowfall 0.0 0.0  
Snow Depth 0.00 in    
Sea Level Pressure  
Sea Level Pressure 29.91 in    
Wind  
Wind Speed 10 mph (SSW)    
Max Wind Speed 17 mph    
Max Gust Speed 23 mph    
Visibility 10 miles    
Events      
T = Trace of Precipitation, MM = Missing Value Source: NWS Daily Summary

Daily Weather History Graph

Daily Weather History Graph

Search for Another Location

Airport or City:

Trip Planner

Search our weather history database for the weather conditions in past years. The results will help you decide how hot, cold, wet, or windy it might be!

Date:

Astronomy

Aug. 06, 2014 Rise Set
Actual Time 5:34 AM PDT 8:16 PM PDT
Civil Twilight 4:58 AM PDT 8:52 PM PDT
Nautical Twilight 4:13 AM PDT 9:36 PM PDT
Astronomical Twilight 3:21 AM PDT 10:28 PM PDT
Moon 4:42 PM PDT (8/6) 1:10 AM PDT (8/6)
Length of Visible Light 15h 53m
Length of Day
14h 42m
Waxing Gibbous, 78% of the Moon is Illuminated
Aug 6
Waxing Gibbous
Aug 10
Full
Aug 17
Last Quarter
Aug 25
New
Sep 2
First Quarter

Hourly Weather History & Observations

Time (PDT) Temp. Dew Point Humidity Pressure Visibility Wind Dir Wind Speed Gust Speed Precip Events Conditions
12:53 AM 75.9 °F 37.0 °F 24% 29.86 in 10.0 mi SSW 6.9 mph - N/A   Mostly Cloudy
1:53 AM 71.6 °F 37.4 °F 29% 29.86 in 10.0 mi SSE 6.9 mph - N/A   Mostly Cloudy
2:53 AM 71.6 °F 42.8 °F 35% 29.88 in 10.0 mi SSW 10.4 mph - N/A   Mostly Cloudy
3:53 AM 68.0 °F 48.2 °F 49% 29.89 in 10.0 mi South 10.4 mph - N/A   Partly Cloudy
4:53 AM 64.0 °F 48.0 °F 56% 29.91 in 10.0 mi SSE 9.2 mph - N/A   Mostly Cloudy
5:53 AM 62.6 °F 46.4 °F 55% 29.93 in 10.0 mi SSE 6.9 mph - N/A   Overcast
6:53 AM 62.6 °F 46.4 °F 55% 29.94 in 10.0 mi SSE 9.2 mph - N/A   Overcast
7:53 AM 62.6 °F 46.4 °F 55% 29.96 in 10.0 mi SSE 9.2 mph - N/A   Mostly Cloudy
8:53 AM 68.0 °F 46.4 °F 46% 29.97 in 10.0 mi SSW 11.5 mph - N/A   Overcast
10:53 AM 75.2 °F 44.6 °F 34% 29.97 in 10.0 mi SSE 10.4 mph - N/A   Partly Cloudy
11:53 AM 80.6 °F 42.8 °F 26% 30.02 in 10.0 mi SSW 11.5 mph 19.6 mph N/A   Clear
12:53 PM 82.0 °F 43.0 °F 25% 29.96 in 10.0 mi SSW 6.9 mph 19.6 mph N/A   Clear
1:53 PM 86.0 °F 42.1 °F 21% 29.94 in 10.0 mi SSW 12.7 mph 18.4 mph N/A   Partly Cloudy
2:53 PM 86.0 °F 39.9 °F 20% 29.92 in 10.0 mi South 9.2 mph 18.4 mph N/A   Partly Cloudy
3:53 PM 87.8 °F 39.2 °F 18% 29.90 in 10.0 mi SW 10.4 mph - N/A   Scattered Clouds
4:53 PM 87.8 °F 37.4 °F 17% 29.89 in 10.0 mi SSW 13.8 mph 19.6 mph N/A   Scattered Clouds
5:53 PM 87.8 °F 39.2 °F 18% 29.88 in 10.0 mi SW 11.5 mph - N/A   Scattered Clouds
6:53 PM 87.8 °F 37.4 °F 17% 29.88 in 10.0 mi WSW 13.8 mph - N/A   Partly Cloudy
7:53 PM 82.4 °F 37.4 °F 20% 29.88 in 10.0 mi SW 8.1 mph - N/A   Partly Cloudy
8:53 PM 80.6 °F 37.4 °F 21% 29.89 in 10.0 mi SSW 8.1 mph - N/A   Partly Cloudy
9:53 PM 77.0 °F 37.4 °F 24% 29.89 in 10.0 mi SSW 9.2 mph - N/A   Partly Cloudy
10:53 PM 75.2 °F 39.2 °F 27% 29.89 in 10.0 mi SSW 9.2 mph - N/A   Partly Cloudy
11:53 PM 73.9 °F 41.0 °F 30% 29.89 in 10.0 mi South 8.1 mph - N/A   Clear